Terminal Aerodrome Forecast
Issued by NWS

Home | Current Version | Previous Version | Text Only | Print | Product List | Glossary On
Versions: 1 2 3 4 5 6 7 8 9 10 11 12 13 14 15 16 17 18 19 20 21 22 23 24 25 26 27
000
FTUS43 KAPX 200128 AAA
TAFPLN
TAF AMD
KPLN 200128Z 2001/2024 00000KT 1/2SM FG OVC004
      TEMPO 2001/2005 1/4SM FG
     FM201500 11005KT 5SM BR BKN015 OVC100
     FM202000 10004KT P6SM OVC003=

USA.gov is the U.S. government's official web portal to all federal, state and local government web resources and services.